FW3958 Weather Reports


Display with metric or nautical units.
time (UTC)temp
F
wind
direction
speed
MPH
gust
MPH
rain 1hr
in
rain 24hr
in
rain mn
in
humidity
%
barometer
mb
20260504221519 60 198 6.0 20.0 0.00 0.00 0.00 90 1015.7
20260504220019 60 188 10.0 21.0 0.00 0.00 0.00 89 1015.7
20260504214519 61 232 12.0 19.0 0.00 0.00 0.00 88 1015.6
20260504213018 60 212 12.0 21.0 0.00 0.00 0.00 87 1015.7
20260504211518 61 172 12.0 21.0 0.00 0.00 0.00 86 1015.7
20260504210021 61 203 11.0 22.0 0.00 0.00 0.00 88 1016.0
20260504204515 61 207 9.0 21.0 0.00 0.00 0.00 87 1015.7
20260504203015 61 182 11.0 21.0 0.00 0.00 0.00 86 1015.8
20260504201514 61 208 11.0 18.0 0.00 0.00 0.00 86 1015.8
20260504200014 62 204 10.0 20.0 0.00 0.00 0.00 87 1015.7
20260504194513 62 217 11.0 18.0 0.00 0.00 0.00 85 1015.8
20260504193013 62 213 11.0 19.0 0.00 0.00 0.00 85 1015.9
20260504191511 62 197 9.0 17.0 0.00 0.00 0.00 84 1015.9
20260504190010 62 197 8.0 15.0 0.00 0.00 0.00 85 1015.9
20260504184511 63 248 8.0 14.0 0.00 0.00 0.00 83 1015.9
20260504183008 63 209 6.0 12.0 0.00 0.00 0.00 85 1015.7
20260504181507 63 191 9.0 13.0 0.00 0.00 0.00 83 1015.7
20260504180008 63 202 6.0 13.0 0.00 0.00 0.00 84 1015.7
20260504174504 62 286 3.0 11.0 0.00 0.00 0.00 85 1015.4
20260504173100 62 209 7.0 13.0 0.00 0.00 0.00 84 1015.5
20260504171557 61 234 7.0 15.0 0.00 0.00 0.00 85 1015.5
20260504081538 53 195 4.0 8.0 0.00 0.00 0.00 98 1012.7
20260504050017 60 60 0.0 0.0 0.00 0.00 0.00 84 1011.0
20260504044517 61 60 0.0 0.0 0.00 0.00 0.00 82 1010.9
20260504043020 62 60 0.0 0.0 0.00 0.00 0.00 80 1010.9
20260504041517 63 60 0.0 0.0 0.00 0.00 0.00 76 1010.7
20260504040018 65 60 0.0 0.0 0.00 0.00 0.00 73 1010.7
20260504034516 66 60 0.0 0.0 0.00 0.00 0.00 70 1010.6
20260504033015 69 62 0.0 0.0 0.00 0.00 0.00 64 1010.3
20260504031516 71 69 0.0 4.0 0.00 0.00 0.00 59 1010.2
20260504030014 73 33 2.0 8.0 0.00 0.00 0.00 55 1010.0
20260504024514 74 22 5.0 11.0 0.00 0.00 0.00 55 1009.9
20260504023016 74 328 4.0 9.0 0.00 0.00 0.00 53 1010.0
20260504021516 75 322 5.0 12.0 0.00 0.00 0.00 56 1010.0
20260504020010 75 349 5.0 10.0 0.00 0.00 0.00 56 1010.0
20260504014509 76 9 4.0 14.0 0.00 0.00 0.00 56 1009.9
20260504013009 76 38 6.0 13.0 0.00 0.00 0.00 56 1010.1
20260504011506 77 9 6.0 16.0 0.00 0.00 0.00 56 1010.2
20260504010004 78 335 8.0 14.0 0.00 0.00 0.00 58 1010.2
20260504004502 79 326 6.0 13.0 0.00 0.00 0.00 56 1010.2
20260504003001 80 14 5.0 11.0 0.00 0.00 0.00 55 1010.2
20260504001600 80 33 6.0 10.0 0.00 0.00 0.00 56 1010.3
20260504000138 80 31 6.0 15.0 0.00 0.00 0.00 54 1010.5
20260503234600 80 1 11.0 17.0 0.00 0.00 0.00 53 1010.5
20260503233054 83 12 9.0 15.0 0.00 0.00 0.00 51 1010.4
20260503231550 85 9 2.0 13.0 0.00 0.00 0.00 50 1010.7
20260503230050 84 318 4.0 12.0 0.00 0.00 0.00 47 1010.7
20260503224546 84 349 4.0 15.0 0.00 0.00 0.00 50 1010.9
20260503223045 82 360 6.0 12.0 0.00 0.00 0.00 54 1011.1